Regional Weather Roundup
Issued by NWS

Home | Current Version | Previous Version | Graphics & Text | Print | Product List | Glossary On
Versions: 1 2 3 4 5 6 7 8 9 10 11 12 13 14 15 16 17 18 19 20 21 22 23 24 25 26 27 28
000
ASUS45 KSLC 250610
RWRUT

UTAH REGIONAL WEATHER ROUNDUP
NATIONAL WEATHER SERVICE SALT LAKE CITY UT
1200 AM MDT SUN SEP 25 2016

UTZ001>011-023>025-250700-

NORTHERN UTAH

CITY           SKY/WX    TMP DP  RH WIND       PRES   REMARKS
BRIGHAM CITY     N/A     50  45  83 NW6       30.39R
HILL AFB       CLEAR     49  40  71 E12       30.39R
LOGAN          CLEAR     46  39  76 CALM      30.39S
OGDEN          CLEAR     49  41  74 S7        30.38S
PROVO AIRPORT  CLEAR     44  41  89 SE3       30.41R
SALT LAKE CITY CLEAR     51  43  74 CALM      30.38R
VERNAL         MOCLDY    48  35  60 CALM      30.38R
WENDOVER       CLEAR     55  39  54 N6        30.40R
HEBER CITY     CLEAR     39  34  81 CALM      30.42R
WEST JORDAN    CLEAR     47  42  85 W5        30.40S

$$

UTZ012>022-026-027-250700-

SOUTHERN/CENTRAL UTAH

CITY           SKY/WX    TMP DP  RH WIND       PRES   REMARKS
BLANDING       PTCLDY    46  36  69 N7        30.40R
BRYCE CANYON   CLEAR     39  27  62 NW7       30.42S WCI  34
CEDAR CITY     CLEAR     52  31  44 NE9       30.36S
DELTA          CLEAR     48  41  76 NE5       30.40R
MILFORD        CLEAR     50  38  63 N7        30.37R
MOAB/CYNLANDS  CLOUDY    57  43  59 NE10      30.32R
PRICE          CLEAR     46  34  62 NW7       30.37S
ST GEORGE      CLEAR     70  36  28 NE21G30   30.22R

$$

REGIONAL REPORTS     COLORADO/ARIZONA

CITY           SKY/WX    TMP DP  RH WIND       PRES   REMARKS
CRAIG, CO      CLOUDY    43  40  89 CALM      30.42R
GRAND JUNCTION PTCLDY    50  42  74 NE3       30.36R
RIFLE          CLOUDY    49  47  93 W6        30.40R
MONTROSE       CLOUDY    50  42  74 CALM      30.39R
CORTEZ         CLEAR     47  37  68 E6        30.28F
PAGE, AZ       PTCLDY    65  36  34 N9        30.27R
GRAND CANYON   CLEAR     40  36  86 NE6       30.34R
KINGMAN        CLEAR     59  32  36 NE5       30.17R
FLAGSTAFF      CLEAR     50  31  48 NE14      30.31F

$$

REGIONAL REPORTS    NEVADA/IDAHO/WYOMING

CITY           SKY/WX    TMP DP  RH WIND       PRES   REMARKS
LAS VEGAS, NV  CLEAR     74  31  20 W5        30.12R
ELY            CLEAR     37  32  82 S3        30.44R
ELKO           CLEAR     47  34  60 E5        30.42R
POCATELLO, ID  CLEAR     49  33  54 S8        30.40R
BURLEY         CLEAR     47  36  65 SW10      30.38R
EVANSTON, WY   CLEAR     40  31  70 SW3       30.47R
ROCK SPRINGS   CLEAR     40  34  79 W3        30.42R

$$




USA.gov is the U.S. government's official web portal to all federal, state and local government web resources and services.